Location: Taukkyan
(23.1052°N, 94.0030°E)
Time: 11:55:41
(UTC+00:00)

H-2A R/B - Pass Details

Date: 06 July 2020
Orbit: 577 x 656 km, 98.5° (Epoch: 14 August)

Event Time Altitude Azimuth Distance (km) Brightness Sun altitude
Exits shadow 20:50:58 11° 136° (SE) 1,997 4.7 -26.4°
Maximum altitude 20:54:48 32° 74° (ENE) 1,110 3.8 -25.7°
Drops below altitude 10° 20:58:44 10° 11° (NNE) 2,034 5.4 -25.1°
Sets 21:01:06 0° 2° (N) 2,934 6.1 -24.7°
